• In Belarus
  • List of Countries
  • For 7 days
  • Water Temperature
  • Satellite Maps
  • Weather Map
  • Weather Widgets
  • user-avatar
    Login

    Hourly Weather Ngozi

    Today, 22 October, Sunday

    Time Temperature Precipitation Wind Pressure Humidity
    00:00 +18°C° 0 mm 1 mps 619 mmHg 86%
    01:00 +18°C° 0 mm 1 mps 618 mmHg 87%
    02:00 +15°C° 0 mm 0 mps 618 mmHg 88%
    03:00 +15°C° 0 mm 0 mps 618 mmHg 88%
    04:00 +15°C° 0 mm 1 mps 618 mmHg 89%
    05:00 +15°C° 0 mm 1 mps 618 mmHg 89%
    06:00 +18°C° 0 mm 1 mps 619 mmHg 81%
    07:00 +20°C° 0 mm 1 mps 620 mmHg 73%
    08:00 +23°C° 0 mm 2 mps 621 mmHg 61%
    09:00 +24°C° 0 mm 2 mps 622 mmHg 54%
    10:00 +26°C° 0 mm 2 mps 622 mmHg 46%
    11:00 +27°C° 0 mm 3 mps 622 mmHg 39%
    12:00 +28°C° 0 mm 3 mps 621 mmHg 37%
    13:00 +28°C° 0 mm 2 mps 621 mmHg 35%
    14:00 +28°C° 0 mm 2 mps 620 mmHg 38%
    15:00 +27°C° 0 mm 2 mps 620 mmHg 39%
    16:00 +27°C° 0 mm 2 mps 619 mmHg 41%
    17:00 +26°C° 0 mm 1 mps 619 mmHg 42%
    18:00 +24°C° 0 mm 1 mps 619 mmHg 47%
    19:00 +22°C° 0 mm 1 mps 619 mmHg 51%
    20:00 +18°C° 0 mm 0 mps 619 mmHg 55%
    21:00 +17°C° 0 mm 0 mps 619 mmHg 57%
    22:00 +17°C° 0 mm 0 mps 619 mmHg 58%
    23:00 +16°C° 0 mm 0 mps 618 mmHg 59%

    Tomorrow, 23 October, Monday

    Time Temperature Precipitation Wind Pressure Humidity
    00:00 +15°C° 0 mm 0 mps 618 mmHg 60%
    01:00 +16°C° 0 mm 1 mps 618 mmHg 61%
    02:00 +15°C° 0 mm 1 mps 617 mmHg 62%
    03:00 +15°C° 0 mm 1 mps 617 mmHg 63%
    04:00 +15°C° 0 mm 1 mps 617 mmHg 63%
    05:00 +14°C° 0 mm 1 mps 617 mmHg 64%
    06:00 +18°C° 0 mm 1 mps 618 mmHg 56%
    07:00 +21°C° 0 mm 1 mps 620 mmHg 48%
    08:00 +23°C° 0 mm 2 mps 621 mmHg 40%
    09:00 +25°C° 0 mm 2 mps 621 mmHg 36%
    10:00 +27°C° 0 mm 3 mps 622 mmHg 33%
    11:00 +28°C° 0 mm 3 mps 622 mmHg 30%
    12:00 +29°C° 0 mm 3 mps 621 mmHg 29%
    13:00 +29°C° 0 mm 3 mps 621 mmHg 27%
    14:00 +30°C° 0 mm 2 mps 620 mmHg 26%
    15:00 +29°C° 0 mm 2 mps 620 mmHg 29%
    16:00 +28°C° 0 mm 2 mps 619 mmHg 32%
    17:00 +27°C° 0 mm 2 mps 619 mmHg 36%
    18:00 +25°C° 0 mm 1 mps 619 mmHg 41%
    19:00 +23°C° 0 mm 1 mps 619 mmHg 46%
    20:00 +21°C° 0 mm 1 mps 619 mmHg 51%
    21:00 +20°C° 0 mm 1 mps 619 mmHg 53%
    22:00 +20°C° 0 mm 1 mps 619 mmHg 55%
    23:00 +17°C° 0 mm 0 mps 619 mmHg 57%

    Day after tomorrow, 24 October, Tuesday

    Time Temperature Precipitation Wind Pressure Humidity
    00:00 +19°C° 0 mm 1 mps 618 mmHg 59%
    01:00 +18°C° 0 mm 1 mps 618 mmHg 61%
    02:00 +18°C° 0 mm 1 mps 617 mmHg 63%
    03:00 +16°C° 0 mm 1 mps 617 mmHg 65%
    04:00 +16°C° 0 mm 1 mps 617 mmHg 67%
    05:00 +15°C° 0 mm 0 mps 617 mmHg 69%
    06:00 +19°C° 0 mm 1 mps 618 mmHg 62%
    07:00 +22°C° 0 mm 1 mps 620 mmHg 54%
    08:00 +24°C° 0 mm 2 mps 621 mmHg 47%
    09:00 +26°C° 0 mm 2 mps 621 mmHg 44%
    10:00 +27°C° 0 mm 2 mps 621 mmHg 40%
    11:00 +29°C° 0 mm 3 mps 621 mmHg 37%
    12:00 +28°C° 0.1 mm 2 mps 620 mmHg 39%
    13:00 +28°C° 0.1 mm 2 mps 619 mmHg 40%
    14:00 +27°C° 0.1 mm 2 mps 618 mmHg 42%
    15:00 +26°C° 0.3 mm 1 mps 618 mmHg 45%
    16:00 +25°C° 0.3 mm 1 mps 618 mmHg 49%
    17:00 +25°C° 0.3 mm 1 mps 618 mmHg 53%
    18:00 +23°C° 0.4 mm 1 mps 618 mmHg 57%
    19:00 +22°C° 0.4 mm 1 mps 618 mmHg 60%
    20:00 +19°C° 0.4 mm 0 mps 618 mmHg 64%
    21:00 +18°C° 0.2 mm 0 mps 618 mmHg 66%
    22:00 +17°C° 0.2 mm 0 mps 618 mmHg 69%
    23:00 +17°C° 0.2 mm 0 mps 618 mmHg 72%

    25 October, Wednesday

    Time Temperature Precipitation Wind Pressure Humidity
    00:00 +17°C° 0 mm 0 mps 617 mmHg 72%
    01:00 +16°C° 0 mm 0 mps 617 mmHg 73%
    02:00 +18°C° 0 mm 1 mps 617 mmHg 74%
    03:00 +18°C° 0.1 mm 1 mps 617 mmHg 74%
    04:00 +16°C° 0.1 mm 0 mps 617 mmHg 74%
    05:00 +17°C° 0.1 mm 0 mps 617 mmHg 74%
    06:00 +20°C° 0.2 mm 1 mps 618 mmHg 69%
    07:00 +22°C° 0.2 mm 1 mps 619 mmHg 65%
    08:00 +23°C° 0.2 mm 1 mps 620 mmHg 60%
    09:00 +25°C° 0.2 mm 1 mps 621 mmHg 56%
    10:00 +26°C° 0.2 mm 1 mps 621 mmHg 53%
    11:00 +27°C° 0.2 mm 2 mps 621 mmHg 49%
    12:00 +27°C° 0.6 mm 2 mps 620 mmHg 50%
    13:00 +27°C° 0.6 mm 2 mps 619 mmHg 50%
    14:00 +27°C° 0.6 mm 2 mps 618 mmHg 51%
    15:00 +26°C° 0.9 mm 2 mps 618 mmHg 55%
    16:00 +25°C° 0.9 mm 2 mps 618 mmHg 58%
    17:00 +24°C° 0.9 mm 1 mps 618 mmHg 62%
    18:00 +23°C° 1.4 mm 1 mps 618 mmHg 69%
    19:00 +21°C° 1.4 mm 1 mps 618 mmHg 75%
    20:00 +18°C° 1.4 mm 0 mps 618 mmHg 82%
    21:00 +17°C° 1.3 mm 0 mps 618 mmHg 84%
    22:00 +19°C° 1.3 mm 1 mps 618 mmHg 87%
    23:00 +18°C° 1.3 mm 1 mps 618 mmHg 90%

    26 October, Thursday

    Time Temperature Precipitation Wind Pressure Humidity
    00:00 +18°C° 0.9 mm 1 mps 617 mmHg 90%
    01:00 +18°C° 0.9 mm 1 mps 617 mmHg 90%
    02:00 +18°C° 0.9 mm 1 mps 616 mmHg 91%
    03:00 +18°C° 0.1 mm 1 mps 617 mmHg 90%
    04:00 +18°C° 0.1 mm 1 mps 617 mmHg 89%
    05:00 +16°C° 0.1 mm 0 mps 617 mmHg 88%
    06:00 +17°C° 0.2 mm 0 mps 618 mmHg 84%
    07:00 +18°C° 0.2 mm 0 mps 619 mmHg 81%
    08:00 +19°C° 0.2 mm 0 mps 620 mmHg 77%
    09:00 +20°C° 1.1 mm 0 mps 620 mmHg 73%
    10:00 +24°C° 1.1 mm 1 mps 620 mmHg 69%
    11:00 +25°C° 1.1 mm 1 mps 620 mmHg 65%
    12:00 +25°C° 2 mm 1 mps 619 mmHg 66%
    13:00 +25°C° 2 mm 1 mps 618 mmHg 67%
    14:00 +24°C° 2 mm 1 mps 618 mmHg 69%
    15:00 +23°C° 2.4 mm 1 mps 617 mmHg 74%
    16:00 +20°C° 2.4 mm 0 mps 617 mmHg 79%
    17:00 +20°C° 2.4 mm 0 mps 617 mmHg 83%
    18:00 +19°C° 1.3 mm 0 mps 617 mmHg 85%
    19:00 +20°C° 1.3 mm 1 mps 617 mmHg 86%
    20:00 +19°C° 1.3 mm 1 mps 618 mmHg 88%
    21:00 +19°C° 0.3 mm 1 mps 618 mmHg 89%
    22:00 +19°C° 0.3 mm 1 mps 618 mmHg 89%
    23:00 +18°C° 0.3 mm 1 mps 618 mmHg 90%

    27 October, Friday

    Time Temperature Precipitation Wind Pressure Humidity
    00:00 +18°C° 0.1 mm 1 mps 617 mmHg 91%
    01:00 +18°C° 0.1 mm 1 mps 616 mmHg 91%
    02:00 +16°C° 0.1 mm 1 mps 616 mmHg 92%
    03:00 +16°C° 0 mm 1 mps 616 mmHg 92%
    04:00 +16°C° 0 mm 1 mps 616 mmHg 91%
    05:00 +15°C° 0 mm 1 mps 616 mmHg 91%
    06:00 +18°C° 0 mm 1 mps 617 mmHg 84%
    07:00 +20°C° 0 mm 1 mps 618 mmHg 78%
    08:00 +22°C° 0 mm 1 mps 620 mmHg 71%
    09:00 +24°C° 0.1 mm 1 mps 620 mmHg 63%
    10:00 +26°C° 0.1 mm 1 mps 620 mmHg 56%
    11:00 +28°C° 0.1 mm 1 mps 620 mmHg 48%
    12:00 +27°C° 0.5 mm 1 mps 619 mmHg 52%
    13:00 +27°C° 0.5 mm 1 mps 618 mmHg 56%
    14:00 +26°C° 0.5 mm 2 mps 617 mmHg 60%
    15:00 +25°C° 1.3 mm 1 mps 617 mmHg 65%
    16:00 +23°C° 1.3 mm 1 mps 617 mmHg 71%
    17:00 +22°C° 1.3 mm 1 mps 617 mmHg 76%
    18:00 +21°C° 2 mm 1 mps 617 mmHg 81%
    19:00 +20°C° 2 mm 1 mps 617 mmHg 85%
    20:00 +17°C° 2 mm 0 mps 617 mmHg 89%
    21:00 +19°C° 0.9 mm 1 mps 617 mmHg 90%
    22:00 +19°C° 0.9 mm 1 mps 617 mmHg 90%
    23:00 +18°C° 0.9 mm 1 mps 617 mmHg 91%
    Show more